| time (UTC) | temp F | wind direction | speed knots | gust knots | rain 1hr in | rain 24hr in | rain mn in | humidity % | barometer mb |
| 20260902074938 | 84 | 22 | 2.6 | 7.0 | 0.00 | 0.00 | 0.00 | 82 | 1015.7 |
| 20260902074606 | 83 | 6 | 0.9 | 7.0 | 0.00 | 0.00 | 0.00 | 81 | 1016.0 |
| 20260902074434 | 84 | 273 | 1.7 | 6.1 | 0.00 | 0.00 | 0.00 | 82 | 1015.8 |
| 20260902073931 | 84 | 238 | 3.5 | 7.0 | 0.00 | 0.00 | 0.00 | 82 | 1015.8 |
| 20260902073430 | 84 | 130 | 1.7 | 7.0 | 0.00 | 0.00 | 0.00 | 82 | 1015.8 |
| 20260902073059 | 83 | 223 | 3.5 | 7.0 | 0.00 | 0.00 | 0.00 | 81 | 1016.1 |
| 20260902072930 | 84 | 186 | 3.5 | 7.0 | 0.00 | 0.00 | 0.00 | 82 | 1015.9 |
| 20260902072655 | 84 | 150 | 1.7 | 7.0 | 0.00 | 0.00 | 0.00 | 82 | 1015.7 |
| 20260902071930 | 84 | 217 | 3.5 | 7.0 | 0.00 | 0.00 | 0.00 | 81 | 1016.0 |
| 20260902071602 | 83 | 225 | 2.6 | 7.0 | 0.00 | 0.00 | 0.00 | 81 | 1016.2 |
| 20260902071430 | 84 | 278 | 2.6 | 7.0 | 0.00 | 0.00 | 0.00 | 81 | 1016.0 |
| 20260902070929 | 84 | 300 | 2.6 | 6.1 | 0.00 | 0.00 | 0.00 | 81 | 1016.1 |
| 20260902070433 | 84 | 349 | 2.6 | 6.1 | 0.00 | 0.00 | 0.00 | 81 | 1016.2 |
| 20260902070318 | 83 | 134 | 2.6 | 7.0 | 0.00 | 0.00 | 0.00 | 81 | 1016.5 |
| 20260902070220 | 83 | 134 | 2.6 | 7.0 | 0.00 | 0.00 | 0.00 | 81 | 1016.5 |
| 20260902065932 | 84 | 264 | 2.6 | 7.0 | 0.00 | 0.00 | 0.00 | 81 | 1016.1 |
| 20260902065657 | 84 | 256 | 3.5 | 7.0 | 0.00 | 0.00 | 0.00 | 81 | 1016.2 |
| 20260902064936 | 84 | 79 | 3.5 | 7.8 | 0.00 | 0.00 | 0.00 | 82 | 1016.3 |
| 20260902064558 | 84 | 50 | 3.5 | 7.8 | 0.00 | 0.00 | 0.00 | 82 | 1016.5 |
| 20260902064436 | 84 | 69 | 3.5 | 7.8 | 0.00 | 0.00 | 0.00 | 82 | 1016.3 |
| 20260902064148 | 84 | 116 | 2.6 | 6.1 | 0.00 | 0.00 | 0.00 | 82 | 1016.4 |
| 20260902063431 | 84 | 44 | 2.6 | 6.1 | 0.00 | 0.00 | 0.00 | 82 | 1016.4 |
| 20260902063250 | 84 | 283 | 1.7 | 7.8 | 0.00 | 0.00 | 0.00 | 82 | 1016.7 |
| 20260902063156 | 84 | 12 | 2.6 | 7.8 | 0.00 | 0.00 | 0.00 | 82 | 1016.5 |
| 20260902062430 | 84 | 224 | 2.6 | 7.8 | 0.00 | 0.00 | 0.00 | 82 | 1016.5 |
| 20260902061930 | 84 | 217 | 2.6 | 7.0 | 0.00 | 0.00 | 0.00 | 82 | 1016.6 |
| 20260902061557 | 84 | 161 | 2.6 | 7.0 | 0.00 | 0.00 | 0.00 | 81 | 1016.8 |
| 20260902061430 | 84 | 251 | 3.5 | 7.0 | 0.00 | 0.00 | 0.00 | 82 | 1016.6 |
| 20260902060930 | 84 | 114 | 2.6 | 7.8 | 0.00 | 0.00 | 0.00 | 82 | 1016.6 |
| 20260902060430 | 84 | 138 | 4.3 | 7.8 | 0.00 | 0.00 | 0.00 | 81 | 1016.6 |
| 20260902060135 | 84 | 11 | 2.6 | 7.8 | 0.00 | 0.00 | 0.00 | 81 | 1016.7 |
| 20260902055931 | 85 | 218 | 2.6 | 7.0 | 0.00 | 0.00 | 0.00 | 81 | 1016.5 |
| 20260902055430 | 85 | 180 | 2.6 | 8.7 | 0.00 | 0.00 | 0.00 | 81 | 1016.4 |
| 20260902055416 | 85 | 179 | 3.5 | 8.7 | 0.00 | 0.00 | 0.00 | 81 | 1016.3 |
| 20260902054554 | 84 | 124 | 3.5 | 8.7 | 0.00 | 0.00 | 0.00 | 80 | 1016.6 |
| 20260902054430 | 85 | 346 | 4.3 | 9.6 | 0.00 | 0.00 | 0.00 | 81 | 1016.5 |
| 20260902054150 | 85 | 71 | 2.6 | 9.6 | 0.00 | 0.00 | 0.00 | 81 | 1016.6 |
| 20260902053430 | 85 | 215 | 1.7 | 6.1 | 0.00 | 0.00 | 0.00 | 80 | 1016.4 |
| 20260902053149 | 85 | 169 | 2.6 | 6.1 | 0.00 | 0.00 | 0.00 | 80 | 1016.6 |
| 20260902053119 | 84 | 256 | 2.6 | 7.0 | 0.00 | 0.00 | 0.00 | 80 | 1016.8 |
| 20260902052430 | 85 | 253 | 1.7 | 6.1 | 0.00 | 0.00 | 0.00 | 80 | 1016.5 |
| 20260902051927 | 85 | 298 | 1.7 | 6.1 | 0.00 | 0.00 | 0.00 | 80 | 1016.6 |
| 20260902051607 | 84 | 94 | 3.5 | 7.8 | 0.00 | 0.00 | 0.00 | 80 | 1016.7 |
| 20260902051423 | 85 | 271 | 2.6 | 5.2 | 0.00 | 0.00 | 0.00 | 80 | 1016.4 |
| 20260902050916 | 85 | 200 | 1.7 | 7.0 | 0.00 | 0.00 | 0.00 | 80 | 1016.5 |
| 20260902050411 | 85 | 203 | 2.6 | 7.0 | 0.00 | 0.00 | 0.00 | 80 | 1016.4 |
| 20260902050055 | 85 | 134 | 1.7 | 6.1 | 0.00 | 0.00 | 0.00 | 79 | 1016.7 |
| 20260902045909 | 85 | 321 | 1.7 | 6.1 | 0.00 | 0.00 | 0.00 | 80 | 1016.6 |
| 20260902045407 | 85 | 222 | 1.7 | 6.1 | 0.00 | 0.00 | 0.00 | 80 | 1016.6 |
| 20260902044908 | 85 | 102 | 1.7 | 6.1 | 0.00 | 0.00 | 0.00 | 79 | 1016.6 |
| 20260902044602 | 85 | 299 | 1.7 | 7.0 | 0.00 | 0.00 | 0.00 | 78 | 1016.8 |
| 20260902044408 | 85 | 231 | 2.6 | 7.0 | 0.00 | 0.00 | 0.00 | 79 | 1016.6 |
| 20260902044355 | 85 | 250 | 2.6 | 7.0 | 0.00 | 0.00 | 0.00 | 78 | 1016.7 |
| 20260902043409 | 85 | 290 | 3.5 | 5.2 | 0.00 | 0.00 | 0.00 | 78 | 1016.8 |
| 20260902043111 | 85 | 167 | 1.7 | 6.1 | 0.00 | 0.00 | 0.00 | 77 | 1016.9 |
| 20260902042908 | 85 | 0 | 1.7 | 5.2 | 0.00 | 0.00 | 0.00 | 78 | 1016.7 |
| 20260902042407 | 85 | 127 | 3.5 | 5.2 | 0.00 | 0.00 | 0.00 | 78 | 1016.7 |
| 20260902041909 | 85 | 166 | 1.7 | 7.0 | 0.00 | 0.00 | 0.00 | 78 | 1016.7 |
| 20260902041630 | 85 | 240 | 1.7 | 6.1 | 0.00 | 0.00 | 0.00 | 77 | 1016.8 |
| 20260902041557 | 85 | 240 | 1.7 | 6.1 | 0.00 | 0.00 | 0.00 | 77 | 1016.8 |
| 20260902041408 | 85 | 59 | 1.7 | 7.0 | 0.00 | 0.00 | 0.00 | 78 | 1016.7 |
| 20260902040906 | 86 | 136 | 2.6 | 7.0 | 0.00 | 0.00 | 0.00 | 78 | 1016.5 |
| 20260902040625 | 86 | 210 | 2.6 | 7.0 | 0.00 | 0.00 | 0.00 | 78 | 1016.4 |
| 20260902040133 | 86 | 330 | 2.6 | 7.0 | 0.00 | 0.00 | 0.00 | 78 | 1016.2 |
| 20260902040056 | 85 | 233 | 2.6 | 7.0 | 0.00 | 0.00 | 0.00 | 77 | 1016.6 |
| 20260902035406 | 86 | 285 | 3.5 | 7.8 | 0.00 | 0.00 | 0.00 | 78 | 1016.3 |
| 20260902035132 | 86 | 228 | 3.5 | 8.7 | 0.00 | 0.00 | 0.00 | 77 | 1016.3 |
| 20260902034553 | 86 | 153 | 3.5 | 8.7 | 0.00 | 0.00 | 0.00 | 77 | 1016.4 |
| 20260902034406 | 86 | 23 | 3.5 | 8.7 | 0.00 | 0.00 | 0.00 | 77 | 1016.1 |
| 20260902033906 | 86 | 252 | 2.6 | 7.0 | 0.00 | 0.00 | 0.00 | 77 | 1016.0 |
| 20260902033407 | 86 | 274 | 2.6 | 9.6 | 0.00 | 0.00 | 0.00 | 76 | 1016.0 |
| 20260902033112 | 86 | 219 | 4.3 | 9.6 | 0.00 | 0.00 | 0.00 | 76 | 1016.2 |
| 20260902032907 | 86 | 8 | 4.3 | 9.6 | 0.00 | 0.00 | 0.00 | 76 | 1015.9 |
| 20260902032406 | 87 | 219 | 2.6 | 7.0 | 0.00 | 0.00 | 0.00 | 76 | 1015.9 |
| 20260902031905 | 87 | 77 | 3.5 | 6.1 | 0.00 | 0.00 | 0.00 | 76 | 1015.7 |
| 20260902031558 | 86 | 68 | 1.7 | 7.0 | 0.00 | 0.00 | 0.00 | 75 | 1015.7 |
| 20260902031405 | 87 | 342 | 3.5 | 7.0 | 0.00 | 0.00 | 0.00 | 75 | 1015.5 |
| 20260902030902 | 87 | 254 | 2.6 | 8.7 | 0.00 | 0.00 | 0.00 | 75 | 1015.5 |
| 20260902030402 | 87 | 56 | 3.5 | 8.7 | 0.00 | 0.00 | 0.00 | 75 | 1015.4 |
| 20260902030056 | 87 | 67 | 3.5 | 7.8 | 0.00 | 0.00 | 0.00 | 74 | 1015.5 |
| 20260902025902 | 87 | 69 | 3.5 | 7.8 | 0.00 | 0.00 | 0.00 | 74 | 1015.2 |
| 20260902025627 | 87 | 40 | 2.6 | 7.8 | 0.00 | 0.00 | 0.00 | 74 | 1015.1 |
| 20260902024941 | 87 | 316 | 2.6 | 7.8 | 0.00 | 0.00 | 0.00 | 72 | 1015.2 |
| 20260902024902 | 88 | 89 | 2.6 | 6.1 | 0.00 | 0.00 | 0.00 | 73 | 1015.1 |
| 20260902024851 | 87 | 316 | 2.6 | 7.8 | 0.00 | 0.00 | 0.00 | 72 | 1015.2 |
| 20260902024402 | 88 | 152 | 3.5 | 6.1 | 0.00 | 0.00 | 0.00 | 72 | 1014.9 |
| 20260902023902 | 88 | 8 | 2.6 | 8.7 | 0.00 | 0.00 | 0.00 | 72 | 1014.8 |
| 20260902023403 | 88 | 304 | 4.3 | 6.1 | 0.00 | 0.00 | 0.00 | 71 | 1014.8 |
| 20260902023131 | 0 | 0.0 | 0.0 | 0.00 | 0.00 | 0.00 | |||
| 20260902023101 | 88 | 190 | 3.5 | 7.8 | 0.00 | 0.00 | 0.00 | 70 | 1015.0 |
| 20260902022502 | 89 | 205 | 3.5 | 0.0 | 0.00 | 0.00 | 0.00 | 67 | 1014.3 |
| 20260902022001 | 89 | 205 | 3.5 | 5.2 | 0.00 | 0.00 | 0.00 | 67 | 1014.3 |
| 20260902021501 | 89 | 205 | 3.5 | 6.1 | 0.00 | 0.00 | 0.00 | 67 | 1014.3 |
| 20260902021001 | 89 | 174 | 2.6 | 7.0 | 0.00 | 0.00 | 0.00 | 67 | 1014.3 |
| 20260902020501 | 89 | 70 | 3.5 | 7.0 | 0.00 | 0.00 | 0.00 | 66 | 1014.1 |
| 20260902020144 | 89 | 34 | 1.7 | 9.6 | 0.00 | 0.00 | 0.00 | 64 | 1014.3 |
| 20260902020001 | 90 | 115 | 3.5 | 9.6 | 0.00 | 0.00 | 0.00 | 64 | 1014.1 |
| 20260902015500 | 90 | 27 | 4.3 | 9.6 | 0.00 | 0.00 | 0.00 | 64 | 1014.1 |
| 20260902015003 | 90 | 164 | 4.3 | 9.6 | 0.00 | 0.00 | 0.00 | 63 | 1014.0 |
| 20260902014724 | 91 | 352 | 3.5 | 7.8 | 0.00 | 0.00 | 0.00 | 62 | 1014.0 |
| 20260902014602 | 90 | 123 | 3.5 | 8.7 | 0.00 | 0.00 | 0.00 | 62 | 1014.2 |
| 20260902014002 | 91 | 52 | 3.5 | 7.8 | 0.00 | 0.00 | 0.00 | 61 | 1013.9 |
| 20260902013502 | 91 | 155 | 3.5 | 7.8 | 0.00 | 0.00 | 0.00 | 60 | 1013.8 |
| 20260902013106 | 91 | 10 | 1.7 | 8.7 | 0.00 | 0.00 | 0.00 | 58 | 1013.7 |
| 20260902013000 | 91 | 273 | 1.7 | 7.8 | 0.00 | 0.00 | 0.00 | 59 | 1013.6 |
| 20260902012736 | 92 | 294 | 3.5 | 7.8 | 0.00 | 0.00 | 0.00 | 58 | 1013.5 |
| 20260902012001 | 92 | 330 | 3.5 | 9.6 | 0.00 | 0.00 | 0.00 | 57 | 1013.5 |
| 20260902011555 | 92 | 60 | 2.6 | 8.7 | 0.00 | 0.00 | 0.00 | 56 | 1013.6 |
| 20260902011501 | 92 | 222 | 3.5 | 9.6 | 0.00 | 0.00 | 0.00 | 56 | 1013.4 |
| 20260902011001 | 93 | 177 | 5.2 | 8.7 | 0.00 | 0.00 | 0.00 | 55 | 1013.4 |
| 20260902010502 | 93 | 141 | 3.5 | 7.0 | 0.00 | 0.00 | 0.00 | 53 | 1013.1 |
| 20260902010454 | 93 | 344 | 3.5 | 7.8 | 0.00 | 0.00 | 0.00 | 52 | 1013.2 |
| 20260902010002 | 93 | 25 | 3.5 | 7.8 | 0.00 | 0.00 | 0.00 | 53 | 1013.1 |
| 20260902005501 | 93 | 214 | 4.3 | 9.6 | 0.00 | 0.00 | 0.00 | 52 | 1013.0 |
| 20260902005002 | 94 | 221 | 3.5 | 9.6 | 0.00 | 0.00 | 0.00 | 52 | 1013.0 |
| 20260902004603 | 93 | 180 | 3.5 | 9.6 | 0.00 | 0.00 | 0.00 | 51 | 1013.2 |
| 20260902004502 | 94 | 319 | 4.3 | 9.6 | 0.00 | 0.00 | 0.00 | 51 | 1013.0 |
| 20260902004001 | 94 | 20 | 4.3 | 9.6 | 0.00 | 0.00 | 0.00 | 51 | 1012.9 |
| 20260902003502 | 95 | 58 | 3.5 | 7.0 | 0.00 | 0.00 | 0.00 | 50 | 1012.9 |
| 20260902003104 | 95 | 240 | 2.6 | 7.8 | 0.00 | 0.00 | 0.00 | 49 | 1013.1 |
| 20260902003002 | 95 | 139 | 3.5 | 7.0 | 0.00 | 0.00 | 0.00 | 50 | 1012.8 |
| 20260902002500 | 96 | 288 | 3.5 | 7.8 | 0.00 | 0.00 | 0.00 | 49 | 1012.7 |
| 20260902002002 | 96 | 292 | 3.5 | 8.7 | 0.00 | 0.00 | 0.00 | 49 | 1012.6 |
| 20260902001556 | 96 | 210 | 2.6 | 8.7 | 0.00 | 0.00 | 0.00 | 48 | 1012.8 |
| 20260902001501 | 96 | 325 | 3.5 | 8.7 | 0.00 | 0.00 | 0.00 | 48 | 1012.5 |
| 20260902001001 | 97 | 94 | 4.3 | 7.8 | 0.00 | 0.00 | 0.00 | 46 | 1012.6 |
| 20260902000501 | 97 | 56 | 4.3 | 7.8 | 0.00 | 0.00 | 0.00 | 46 | 1012.5 |
| 20260902000055 | 97 | 88 | 3.5 | 8.7 | 0.00 | 0.00 | 0.00 | 44 | 1012.7 |
| 20260902000002 | 98 | 196 | 4.3 | 7.0 | 0.00 | 0.00 | 0.00 | 45 | 1012.5 |
| 20260901235500 | 98 | 200 | 2.6 | 7.0 | 0.00 | 0.00 | 0.00 | 43 | 1012.4 |
| 20260901235002 | 99 | 219 | 2.6 | 7.0 | 0.00 | 0.00 | 0.00 | 42 | 1012.4 |
| 20260901234635 | 98 | 198 | 2.6 | 7.0 | 0.00 | 0.00 | 0.00 | 42 | 1012.5 |
| 20260901234447 | 99 | 103 | 3.5 | 7.0 | 0.00 | 0.00 | 0.00 | 42 | 1012.2 |
| 20260901233941 | 99 | 242 | 3.5 | 7.0 | 0.00 | 0.00 | 0.00 | 41 | 1012.3 |
| 20260901233440 | 99 | 167 | 3.5 | 7.8 | 0.00 | 0.00 | 0.00 | 41 | 1012.2 |
| 20260901233103 | 99 | 82 | 5.2 | 9.6 | 0.00 | 0.00 | 0.00 | 40 | 1012.4 |
| 20260901232935 | 99 | 184 | 5.2 | 7.8 | 0.00 | 0.00 | 0.00 | 40 | 1012.2 |
| 20260901232435 | 100 | 347 | 2.6 | 6.1 | 0.00 | 0.00 | 0.00 | 39 | 1012.4 |
| 20260901231929 | 100 | 262 | 2.6 | 7.8 | 0.00 | 0.00 | 0.00 | 40 | 1012.3 |
| 20260901231607 | 100 | 3 | 4.3 | 7.0 | 0.00 | 0.00 | 0.00 | 39 | 1012.4 |
| 20260901231429 | 101 | 263 | 4.3 | 7.8 | 0.00 | 0.00 | 0.00 | 39 | 1012.2 |
| 20260901230929 | 101 | 67 | 3.5 | 7.8 | 0.00 | 0.00 | 0.00 | 38 | 1012.0 |
| 20260901230429 | 101 | 216 | 3.5 | 9.6 | 0.00 | 0.00 | 0.00 | 37 | 1012.1 |
| 20260901230159 | 101 | 336 | 3.5 | 9.6 | 0.00 | 0.00 | 0.00 | 37 | 1012.0 |
| 20260901230112 | 101 | 229 | 2.6 | 9.6 | 0.00 | 0.00 | 0.00 | 37 | 1012.3 |
| 20260901225929 | 101 | 238 | 3.5 | 9.6 | 0.00 | 0.00 | 0.00 | 37 | 1012.0 |
| 20260901224928 | 102 | 77 | 2.6 | 7.0 | 0.00 | 0.00 | 0.00 | 37 | 1012.0 |
| 20260901224603 | 101 | 112 | 2.6 | 7.0 | 0.00 | 0.00 | 0.00 | 36 | 1012.1 |
| 20260901224430 | 102 | 358 | 3.5 | 7.0 | 0.00 | 0.00 | 0.00 | 37 | 1012.1 |
| 20260901223930 | 102 | 176 | 1.7 | 6.1 | 0.00 | 0.00 | 0.00 | 37 | 1012.0 |
| 20260901223430 | 102 | 98 | 4.3 | 6.1 | 0.00 | 0.00 | 0.00 | 36 | 1012.1 |
| 20260901223126 | 102 | 229 | 3.5 | 7.8 | 0.00 | 0.00 | 0.00 | 35 | 1012.3 |
| 20260901222929 | 103 | 257 | 0.9 | 6.1 | 0.00 | 0.00 | 0.00 | 36 | 1012.0 |
| 20260901222429 | 102 | 289 | 2.6 | 6.1 | 0.00 | 0.00 | 0.00 | 37 | 1012.0 |
| 20260901221928 | 102 | 285 | 2.6 | 6.1 | 0.00 | 0.00 | 0.00 | 37 | 1012.0 |
| 20260901221618 | 102 | 226 | 3.5 | 7.8 | 0.00 | 0.00 | 0.00 | 36 | 1012.4 |
| 20260901221431 | 102 | 288 | 5.2 | 6.1 | 0.00 | 0.00 | 0.00 | 37 | 1012.0 |
| 20260901221157 | 103 | 276 | 1.7 | 9.6 | 0.00 | 0.00 | 0.00 | 36 | 1012.0 |
| 20260901220718 | 103 | 297 | 3.5 | 9.6 | 0.00 | 0.00 | 0.00 | 37 | 1012.1 |
| 20260901220057 | 103 | 79 | 1.7 | 7.0 | 0.00 | 0.00 | 0.00 | 37 | 1012.3 |
| 20260901215931 | 104 | 304 | 2.6 | 5.2 | 0.00 | 0.00 | 0.00 | 38 | 1012.1 |
| 20260901215428 | 103 | 106 | 1.7 | 5.2 | 0.00 | 0.00 | 0.00 | 39 | 1012.1 |
| 20260901214928 | 103 | 307 | 2.6 | 8.7 | 0.00 | 0.00 | 0.00 | 38 | 1012.2 |
| 20260901214600 | 103 | 286 | 3.5 | 7.8 | 0.00 | 0.00 | 0.00 | 37 | 1012.4 |
| 20260901214429 | 103 | 233 | 4.3 | 8.7 | 0.00 | 0.00 | 0.00 | 37 | 1012.2 |
| 20260901213929 | 104 | 272 | 1.7 | 7.0 | 0.00 | 0.00 | 0.00 | 37 | 1012.3 |
| 20260901213429 | 103 | 245 | 2.6 | 8.7 | 0.00 | 0.00 | 0.00 | 38 | 1012.3 |
| 20260901213126 | 103 | 225 | 2.6 | 7.8 | 0.00 | 0.00 | 0.00 | 39 | 1012.5 |
| 20260901212929 | 103 | 227 | 3.5 | 8.7 | 0.00 | 0.00 | 0.00 | 38 | 1012.4 |
| 20260901212429 | 103 | 262 | 2.6 | 9.6 | 0.00 | 0.00 | 0.00 | 37 | 1012.4 |
| 20260901211929 | 104 | 253 | 4.3 | 9.6 | 0.00 | 0.00 | 0.00 | 38 | 1012.4 |
| 20260901211602 | 103 | 229 | 1.7 | 11.3 | 0.00 | 0.00 | 0.00 | 38 | 1012.6 |
| 20260901211431 | 103 | 290 | 2.6 | 9.6 | 0.00 | 0.00 | 0.00 | 40 | 1012.4 |
| 20260901210929 | 103 | 37 | 4.3 | 9.6 | 0.00 | 0.00 | 0.00 | 41 | 1012.4 |
| 20260901210429 | 103 | 64 | 2.6 | 10.4 | 0.00 | 0.00 | 0.00 | 41 | 1012.6 |
| 20260901210101 | 103 | 123 | 3.5 | 11.3 | 0.00 | 0.00 | 0.00 | 40 | 1012.8 |
| 20260901205929 | 103 | 181 | 3.5 | 10.4 | 0.00 | 0.00 | 0.00 | 40 | 1012.6 |
| 20260901205428 | 103 | 209 | 2.6 | 7.0 | 0.00 | 0.00 | 0.00 | 41 | 1012.6 |
| 20260901204928 | 103 | 133 | 2.6 | 6.1 | 0.00 | 0.00 | 0.00 | 41 | 1012.8 |
| 20260901204559 | 102 | 250 | 1.7 | 7.8 | 0.00 | 0.00 | 0.00 | 41 | 1013.1 |
| 20260901204431 | 103 | 207 | 2.6 | 6.1 | 0.00 | 0.00 | 0.00 | 42 | 1012.9 |
| 20260901203930 | 102 | 124 | 1.7 | 7.8 | 0.00 | 0.00 | 0.00 | 43 | 1012.9 |
| 20260901203431 | 102 | 70 | 2.6 | 7.8 | 0.00 | 0.00 | 0.00 | 43 | 1013.1 |
| 20260901203107 | 102 | 82 | 2.6 | 7.0 | 0.00 | 0.00 | 0.00 | 41 | 1013.3 |
| 20260901202928 | 103 | 53 | 1.7 | 7.0 | 0.00 | 0.00 | 0.00 | 41 | 1013.0 |
| 20260901202429 | 102 | 36 | 3.5 | 8.7 | 0.00 | 0.00 | 0.00 | 41 | 1013.1 |
| 20260901202151 | 102 | 188 | 3.5 | 8.7 | 0.00 | 0.00 | 0.00 | 43 | 1013.2 |
| 20260901201654 | 102 | 335 | 1.7 | 7.8 | 0.00 | 0.00 | 0.00 | 43 | 1013.2 |
| 20260901201604 | 101 | 295 | 0.9 | 7.0 | 0.00 | 0.00 | 0.00 | 43 | 1013.5 |
| 20260901200929 | 103 | 311 | 2.6 | 6.1 | 0.00 | 0.00 | 0.00 | 41 | 1013.4 |
| 20260901200429 | 103 | 296 | 2.6 | 6.1 | 0.00 | 0.00 | 0.00 | 40 | 1013.5 |
| 20260901195929 | 103 | 190 | 1.7 | 5.2 | 0.00 | 0.00 | 0.00 | 42 | 1013.5 |
| 20260901195428 | 102 | 140 | 0.9 | 6.1 | 0.00 | 0.00 | 0.00 | 42 | 1013.7 |
| 20260901194929 | 103 | 264 | 2.6 | 6.1 | 0.00 | 0.00 | 0.00 | 41 | 1013.8 |
| 20260901194559 | 102 | 40 | 3.5 | 7.8 | 0.00 | 0.00 | 0.00 | 41 | 1013.9 |
| 20260901194428 | 103 | 169 | 3.5 | 8.7 | 0.00 | 0.00 | 0.00 | 40 | 1013.8 |
| 20260901193923 | 102 | 97 | 2.6 | 8.7 | 0.00 | 0.00 | 0.00 | 40 | 1013.9 |
| 20260901193418 | 102 | 181 | 1.7 | 7.0 | 0.00 | 0.00 | 0.00 | 39 | 1014.0 |
| 20260901193133 | 103 | 34 | 3.5 | 6.1 | 0.00 | 0.00 | 0.00 | 41 | 1014.0 |
| 20260901193108 | 102 | 56 | 2.6 | 6.1 | 0.00 | 0.00 | 0.00 | 39 | 1014.2 |
| 20260901192411 | 102 | 220 | 2.6 | 7.0 | 0.00 | 0.00 | 0.00 | 42 | 1014.0 |
| 20260901191905 | 102 | 233 | 2.6 | 8.7 | 0.00 | 0.00 | 0.00 | 39 | 1014.1 |
| 20260901191553 | 102 | 197 | 2.6 | 8.7 | 0.00 | 0.00 | 0.00 | 42 | 1014.4 |
| 20260901191402 | 102 | 311 | 3.5 | 8.7 | 0.00 | 0.00 | 0.00 | 41 | 1014.2 |
| 20260901190902 | 101 | 14 | 3.5 | 9.6 | 0.00 | 0.00 | 0.00 | 42 | 1014.3 |
| 20260901190401 | 101 | 41 | 3.5 | 9.6 | 0.00 | 0.00 | 0.00 | 40 | 1014.5 |
| 20260901190052 | 101 | 136 | 0.9 | 7.8 | 0.00 | 0.00 | 0.00 | 43 | 1014.7 |
| 20260901185901 | 101 | 222 | 1.7 | 7.8 | 0.00 | 0.00 | 0.00 | 43 | 1014.5 |
| 20260901185623 | 101 | 226 | 3.5 | 8.7 | 0.00 | 0.00 | 0.00 | 44 | 1014.6 |
| 20260901184902 | 101 | 186 | 3.5 | 8.7 | 0.00 | 0.00 | 0.00 | 40 | 1014.7 |
| 20260901184626 | 100 | 253 | 3.5 | 9.6 | 0.00 | 0.00 | 0.00 | 43 | 1015.0 |
| 20260901184402 | 101 | 237 | 2.6 | 7.8 | 0.00 | 0.00 | 0.00 | 43 | 1014.6 |
| 20260901183901 | 100 | 265 | 2.6 | 7.8 | 0.00 | 0.00 | 0.00 | 45 | 1014.9 |
| 20260901183401 | 100 | 86 | 3.5 | 7.8 | 0.00 | 0.00 | 0.00 | 46 | 1014.9 |
| 20260901183057 | 99 | 158 | 2.6 | 7.8 | 0.00 | 0.00 | 0.00 | 45 | 1015.3 |
| 20260901182901 | 100 | 51 | 2.6 | 7.8 | 0.00 | 0.00 | 0.00 | 47 | 1015.1 |
| 20260901182402 | 100 | 136 | 2.6 | 5.2 | 0.00 | 0.00 | 0.00 | 46 | 1015.2 |
| 20260901181901 | 99 | 262 | 2.6 | 7.0 | 0.00 | 0.00 | 0.00 | 46 | 1015.2 |
| 20260901181627 | 99 | 350 | 2.6 | 7.0 | 0.00 | 0.00 | 0.00 | 46 | 1015.6 |
| 20260901181401 | 99 | 248 | 4.3 | 7.0 | 0.00 | 0.00 | 0.00 | 46 | 1015.3 |
| 20260901180901 | 99 | 59 | 1.7 | 7.8 | 0.00 | 0.00 | 0.00 | 48 | 1015.4 |
| 20260901180406 | 99 | 262 | 1.7 | 8.7 | 0.00 | 0.00 | 0.00 | 49 | 1015.5 |
| 20260901180402 | 99 | 188 | 3.5 | 7.8 | 0.00 | 0.00 | 0.00 | 47 | 1015.6 |
| 20260901180109 | 98 | 231 | 1.7 | 8.7 | 0.00 | 0.00 | 0.00 | 47 | 1015.8 |
| 20260901175401 | 98 | 136 | 3.5 | 8.7 | 0.00 | 0.00 | 0.00 | 47 | 1015.7 |
| 20260901174914 | 98 | 139 | 3.5 | 9.6 | 0.00 | 0.00 | 0.00 | 51 | 1015.9 |
| 20260901174805 | 97 | 348 | 2.6 | 9.6 | 0.00 | 0.00 | 0.00 | 50 | 1016.1 |
| 20260901174402 | 98 | 212 | 2.6 | 9.6 | 0.00 | 0.00 | 0.00 | 51 | 1015.8 |
| 20260901173901 | 97 | 285 | 1.7 | 5.2 | 0.00 | 0.00 | 0.00 | 52 | 1015.9 |
| 20260901173401 | 97 | 276 | 2.6 | 5.2 | 0.00 | 0.00 | 0.00 | 51 | 1015.8 |
| 20260901173102 | 97 | 345 | 1.7 | 9.6 | 0.00 | 0.00 | 0.00 | 51 | 1016.1 |
| 20260901172901 | 97 | 334 | 2.6 | 7.8 | 0.00 | 0.00 | 0.00 | 52 | 1015.9 |
| 20260901172400 | 96 | 136 | 3.5 | 7.8 | 0.00 | 0.00 | 0.00 | 53 | 1015.8 |
| 20260901171900 | 96 | 141 | 3.5 | 6.1 | 0.00 | 0.00 | 0.00 | 52 | 1016.0 |
| 20260901171627 | 96 | 259 | 1.7 | 6.1 | 0.00 | 0.00 | 0.00 | 52 | 1016.3 |
| 20260901171400 | 97 | 108 | 1.7 | 5.2 | 0.00 | 0.00 | 0.00 | 52 | 1016.1 |
| 20260901170903 | 96 | 217 | 2.6 | 7.8 | 0.00 | 0.00 | 0.00 | 52 | 1016.1 |
| 20260901170402 | 95 | 193 | 2.6 | 7.8 | 0.00 | 0.00 | 0.00 | 55 | 1016.1 |
| 20260901170106 | 95 | 54 | 2.6 | 7.0 | 0.00 | 0.00 | 0.00 | 52 | 1016.6 |
| 20260901165903 | 95 | 118 | 2.6 | 7.0 | 0.00 | 0.00 | 0.00 | 53 | 1016.3 |
| 20260901165613 | 94 | 214 | 2.6 | 7.8 | 0.00 | 0.00 | 0.00 | 57 | 1016.4 |
| 20260901165602 | 95 | 327 | 1.7 | 7.0 | 0.00 | 0.00 | 0.00 | 56 | 1016.2 |
| 20260901164606 | 93 | 78 | 3.5 | 7.8 | 0.00 | 0.00 | 0.00 | 57 | 1016.6 |
| 20260901164402 | 94 | 249 | 3.5 | 7.8 | 0.00 | 0.00 | 0.00 | 58 | 1016.4 |
| 20260901163902 | 93 | 296 | 2.6 | 7.0 | 0.00 | 0.00 | 0.00 | 60 | 1016.4 |
| 20260901163403 | 93 | 39 | 1.7 | 7.0 | 0.00 | 0.00 | 0.00 | 60 | 1016.4 |
| 20260901163121 | 92 | 72 | 2.6 | 7.0 | 0.00 | 0.00 | 0.00 | 60 | 1016.6 |
| 20260901162903 | 93 | 126 | 3.5 | 7.0 | 0.00 | 0.00 | 0.00 | 61 | 1016.3 |
| 20260901162624 | 92 | 321 | 3.5 | 7.0 | 0.00 | 0.00 | 0.00 | 63 | 1016.3 |
| 20260901161901 | 92 | 277 | 2.6 | 7.8 | 0.00 | 0.00 | 0.00 | 63 | 1016.3 |
| 20260901161606 | 91 | 250 | 2.6 | 7.0 | 0.00 | 0.00 | 0.00 | 64 | 1016.6 |
| 20260901161401 | 92 | 188 | 2.6 | 7.8 | 0.00 | 0.00 | 0.00 | 64 | 1016.4 |
| 20260901160902 | 92 | 196 | 1.7 | 5.2 | 0.00 | 0.00 | 0.00 | 64 | 1016.5 |
| 20260901160401 | 92 | 69 | 0.9 | 7.0 | 0.00 | 0.00 | 0.00 | 66 | 1016.6 |
| 20260901160107 | 91 | 144 | 2.6 | 7.0 | 0.00 | 0.00 | 0.00 | 65 | 1016.7 |
| 20260901155901 | 91 | 285 | 2.6 | 7.0 | 0.00 | 0.00 | 0.00 | 65 | 1016.6 |
| 20260901155400 | 91 | 56 | 1.7 | 6.1 | 0.00 | 0.00 | 0.00 | 66 | 1016.5 |
| 20260901155119 | 90 | 186 | 3.5 | 6.1 | 0.00 | 0.00 | 0.00 | 68 | 1016.5 |
| 20260901154614 | 90 | 143 | 2.6 | 8.7 | 0.00 | 0.00 | 0.00 | 67 | 1016.7 |
| 20260901154400 | 90 | 105 | 3.5 | 5.2 | 0.00 | 0.00 | 0.00 | 67 | 1016.5 |
| 20260901153903 | 89 | 351 | 1.7 | 6.1 | 0.00 | 0.00 | 0.00 | 69 | 1016.4 |
| 20260901153402 | 89 | 215 | 2.6 | 6.1 | 0.00 | 0.00 | 0.00 | 69 | 1016.5 |
| 20260901153102 | 89 | 297 | 1.7 | 7.8 | 0.00 | 0.00 | 0.00 | 69 | 1016.7 |
| 20260901152903 | 89 | 96 | 1.7 | 8.7 | 0.00 | 0.00 | 0.00 | 70 | 1016.4 |
| 20260901152415 | 89 | 174 | 2.6 | 8.7 | 0.00 | 0.00 | 0.00 | 71 | 1016.4 |
| 20260901151902 | 88 | 241 | 2.6 | 8.7 | 0.00 | 0.00 | 0.00 | 72 | 1016.4 |
| 20260901151558 | 87 | 88 | 2.6 | 8.7 | 0.00 | 0.00 | 0.00 | 72 | 1016.6 |
| 20260901151402 | 88 | 99 | 3.5 | 8.7 | 0.00 | 0.00 | 0.00 | 72 | 1016.3 |
| 20260901150901 | 87 | 215 | 3.5 | 7.8 | 0.00 | 0.00 | 0.00 | 72 | 1016.3 |
| 20260901150401 | 87 | 205 | 3.5 | 7.0 | 0.00 | 0.00 | 0.00 | 73 | 1016.3 |
| 20260901150056 | 87 | 18 | 1.7 | 7.8 | 0.00 | 0.00 | 0.00 | 73 | 1016.6 |
| 20260901145901 | 87 | 203 | 2.6 | 7.8 | 0.00 | 0.00 | 0.00 | 75 | 1016.2 |
| 20260901145401 | 87 | 194 | 3.5 | 7.8 | 0.00 | 0.00 | 0.00 | 74 | 1016.2 |
| 20260901145127 | 87 | 280 | 3.5 | 5.2 | 0.00 | 0.00 | 0.00 | 75 | 1016.3 |
| 20260901144603 | 86 | 254 | 1.7 | 7.8 | 0.00 | 0.00 | 0.00 | 76 | 1016.6 |
| 20260901144401 | 86 | 15 | 1.7 | 5.2 | 0.00 | 0.00 | 0.00 | 77 | 1016.4 |
| 20260901144121 | 86 | 333 | 1.7 | 7.0 | 0.00 | 0.00 | 0.00 | 77 | 1016.4 |
| 20260901143402 | 86 | 56 | 2.6 | 8.7 | 0.00 | 0.00 | 0.00 | 77 | 1016.4 |
| 20260901143108 | 85 | 73 | 2.6 | 7.8 | 0.00 | 0.00 | 0.00 | 78 | 1016.6 |
| 20260901142902 | 85 | 270 | 2.6 | 8.7 | 0.00 | 0.00 | 0.00 | 77 | 1016.4 |
| 20260901142401 | 85 | 49 | 2.6 | 7.0 | 0.00 | 0.00 | 0.00 | 78 | 1016.5 |
| 20260901141901 | 85 | 292 | 1.7 | 6.1 | 0.00 | 0.00 | 0.00 | 80 | 1016.4 |
| 20260901141723 | 84 | 183 | 1.7 | 6.1 | 0.00 | 0.00 | 0.00 | 80 | 1016.7 |
| 20260901141401 | 84 | 296 | 2.6 | 5.2 | 0.00 | 0.00 | 0.00 | 80 | 1016.5 |
| 20260901141345 | 84 | 298 | 1.7 | 5.2 | 0.00 | 0.00 | 0.00 | 81 | 1016.4 |
| 20260901140854 | 84 | 197 | 2.6 | 5.2 | 0.00 | 0.00 | 0.00 | 82 | 1016.4 |
| 20260901140120 | 83 | 276 | 1.7 | 7.0 | 0.00 | 0.00 | 0.00 | 81 | 1016.4 |
| 20260901135903 | 83 | 308 | 2.6 | 5.2 | 0.00 | 0.00 | 0.00 | 82 | 1016.3 |
| 20260901135402 | 83 | 272 | 1.7 | 5.2 | 0.00 | 0.00 | 0.00 | 83 | 1016.2 |
| 20260901134902 | 83 | 240 | 1.7 | 5.2 | 0.00 | 0.00 | 0.00 | 83 | 1016.2 |
| 20260901134639 | 82 | 189 | 0.9 | 5.2 | 0.00 | 0.00 | 0.00 | 83 | 1016.5 |
| 20260901134402 | 82 | 217 | 1.7 | 5.2 | 0.00 | 0.00 | 0.00 | 84 | 1016.2 |
| 20260901133903 | 82 | 180 | 2.6 | 5.2 | 0.00 | 0.00 | 0.00 | 84 | 1016.1 |
| 20260901133621 | 82 | 184 | 1.7 | 4.3 | 0.00 | 0.00 | 0.00 | 84 | 1016.0 |
| 20260901133105 | 82 | 330 | 0.9 | 3.5 | 0.00 | 0.00 | 0.00 | 84 | 1016.3 |
| 20260901132900 | 82 | 50 | 1.7 | 3.5 | 0.00 | 0.00 | 0.00 | 84 | 1016.1 |
| 20260901132400 | 82 | 113 | 0.9 | 2.6 | 0.00 | 0.00 | 0.00 | 84 | 1016.1 |
| 20260901131901 | 82 | 38 | 0.9 | 1.7 | 0.00 | 0.00 | 0.00 | 84 | 1016.0 |
| 20260901131702 | 81 | 201 | 0.9 | 3.5 | 0.00 | 0.00 | 0.00 | 84 | 1016.3 |
| 20260901131401 | 82 | 115 | 1.7 | 2.6 | 0.00 | 0.00 | 0.00 | 85 | 1016.0 |
| 20260901130859 | 82 | 138 | 0.9 | 3.5 | 0.00 | 0.00 | 0.00 | 85 | 1015.9 |
| 20260901130354 | 81 | 113 | 0.0 | 3.5 | 0.00 | 0.00 | 0.00 | 86 | 1016.0 |
| 20260901130125 | 81 | 94 | 0.9 | 3.5 | 0.00 | 0.00 | 0.00 | 86 | 1015.9 |
| 20260901130108 | 80 | 188 | 0.9 | 3.5 | 0.00 | 0.00 | 0.00 | 85 | 1016.2 |
| 20260901125350 | 80 | 68 | 0.9 | 3.5 | 0.00 | 0.00 | 0.00 | 87 | 1015.8 |
| 20260901124840 | 80 | 160 | 0.9 | 1.7 | 0.00 | 0.00 | 0.00 | 87 | 1015.7 |
| 20260901124608 | 79 | 0 | 0.0 | 2.6 | 0.00 | 0.00 | 0.00 | 87 | 1016.0 |
| 20260901124340 | 80 | 252 | 0.0 | 1.7 | 0.00 | 0.00 | 0.00 | 88 | 1015.7 |
| 20260901123830 | 79 | 334 | 0.9 | 2.6 | 0.00 | 0.00 | 0.00 | 89 | 1015.6 |
| 20260901123551 | 79 | 248 | 0.9 | 2.6 | 0.00 | 0.00 | 0.00 | 89 | 1015.6 |
| 20260901123104 | 79 | 97 | 0.0 | 2.6 | 0.00 | 0.00 | 0.00 | 88 | 1015.8 |
| 20260901122822 | 79 | 226 | 0.0 | 1.7 | 0.00 | 0.00 | 0.00 | 89 | 1015.6 |
| 20260901122318 | 79 | 30 | 0.0 | 2.6 | 0.00 | 0.00 | 0.00 | 89 | 1015.7 |
| 20260901121815 | 79 | 237 | 0.0 | 2.6 | 0.00 | 0.00 | 0.00 | 88 | 1015.6 |
| 20260901121604 | 79 | 351 | 0.0 | 2.6 | 0.00 | 0.00 | 0.00 | 88 | 1015.7 |
| 20260901121304 | 79 | 259 | 0.0 | 1.7 | 0.00 | 0.00 | 0.00 | 88 | 1015.5 |
| 20260901120803 | 79 | 27 | 0.0 | 1.7 | 0.00 | 0.00 | 0.00 | 88 | 1015.4 |
| 20260901120302 | 79 | 233 | 0.0 | 3.5 | 0.00 | 0.00 | 0.00 | 88 | 1015.3 |
| 20260901120108 | 79 | 83 | 0.0 | 2.6 | 0.00 | 0.00 | 0.00 | 88 | 1015.5 |
| 20260901115803 | 79 | 311 | 0.9 | 3.5 | 0.00 | 0.00 | 0.00 | 88 | 1015.3 |
| 20260901115306 | 79 | 216 | 0.9 | 2.6 | 0.00 | 0.00 | 0.00 | 88 | 1015.3 |
| 20260901114812 | 79 | 292 | 0.0 | 2.6 | 0.00 | 0.00 | 0.00 | 88 | 1015.4 |
| 20260901114557 | 79 | 358 | 0.0 | 2.6 | 0.00 | 0.00 | 0.00 | 87 | 1015.6 |
| 20260901114255 | 79 | 139 | 0.9 | 2.6 | 0.00 | 0.00 | 0.00 | 88 | 1015.3 |
| 20260901113749 | 79 | 215 | 0.0 | 2.6 | 0.00 | 0.00 | 0.00 | 88 | 1015.4 |
| 20260901113245 | 80 | 359 | 0.9 | 3.5 | 0.00 | 0.00 | 0.00 | 88 | 1015.4 |
| 20260901113143 | 79 | 75 | 0.9 | 4.3 | 0.00 | 0.00 | 0.00 | 87 | 1015.5 |
| 20260901112740 | 79 | 295 | 0.9 | 4.3 | 0.00 | 0.00 | 0.00 | 88 | 1015.3 |
| 20260901112240 | 79 | 103 | 1.7 | 4.3 | 0.00 | 0.00 | 0.00 | 88 | 1015.3 |
| 20260901111736 | 79 | 325 | 0.9 | 3.5 | 0.00 | 0.00 | 0.00 | 88 | 1015.3 |
| 20260901111604 | 79 | 276 | 0.9 | 3.5 | 0.00 | 0.00 | 0.00 | 87 | 1015.6 |
| 20260901111231 | 79 | 258 | 0.9 | 3.5 | 0.00 | 0.00 | 0.00 | 88 | 1015.3 |
| 20260901110729 | 79 | 5 | 0.9 | 3.5 | 0.00 | 0.00 | 0.00 | 88 | 1015.4 |
| 20260901110230 | 80 | 298 | 0.0 | 3.5 | 0.00 | 0.00 | 0.00 | 88 | 1015.5 |
| 20260901110108 | 79 | 0 | 0.0 | 2.6 | 0.00 | 0.00 | 0.00 | 87 | 1015.5 |
| 20260901105952 | 80 | 37 | 0.9 | 3.5 | 0.00 | 0.00 | 0.00 | 87 | 1015.4 |
| 20260901105229 | 80 | 236 | 0.0 | 2.6 | 0.00 | 0.00 | 0.00 | 87 | 1015.3 |
| 20260901104729 | 80 | 162 | 0.9 | 2.6 | 0.00 | 0.00 | 0.00 | 87 | 1015.3 |
| 20260901104601 | 79 | 290 | 0.0 | 5.2 | 0.00 | 0.00 | 0.00 | 87 | 1015.5 |
| 20260901104228 | 80 | 181 | 0.0 | 5.2 | 0.00 | 0.00 | 0.00 | 87 | 1015.3 |
| 20260901103950 | 80 | 345 | 0.9 | 5.2 | 0.00 | 0.00 | 0.00 | 87 | 1015.3 |
| 20260901103229 | 80 | 50 | 0.0 | 3.5 | 0.00 | 0.00 | 0.00 | 87 | 1015.2 |
| 20260901103106 | 79 | 13 | 0.9 | 3.5 | 0.00 | 0.00 | 0.00 | 86 | 1015.4 |
| 20260901102950 | 80 | 111 | 1.7 | 2.6 | 0.00 | 0.00 | 0.00 | 87 | 1015.3 |
| 20260901102229 | 80 | 226 | 0.0 | 1.7 | 0.00 | 0.00 | 0.00 | 87 | 1015.5 |
| 20260901101728 | 80 | 93 | 0.9 | 4.3 | 0.00 | 0.00 | 0.00 | 86 | 1015.3 |
| 20260901101616 | 80 | 73 | 0.9 | 4.3 | 0.00 | 0.00 | 0.00 | 86 | 1015.6 |
| 20260901101229 | 80 | 18 | 1.7 | 4.3 | 0.00 | 0.00 | 0.00 | 86 | 1015.4 |
| 20260901100728 | 80 | 28 | 1.7 | 3.5 | 0.00 | 0.00 | 0.00 | 86 | 1015.4 |
| 20260901100229 | 80 | 202 | 0.9 | 2.6 | 0.00 | 0.00 | 0.00 | 86 | 1015.5 |
| 20260901100108 | 80 | 215 | 0.9 | 2.6 | 0.00 | 0.00 | 0.00 | 86 | 1015.6 |
| 20260901095729 | 80 | 256 | 0.9 | 2.6 | 0.00 | 0.00 | 0.00 | 86 | 1015.5 |
| 20260901095229 | 80 | 198 | 0.0 | 2.6 | 0.00 | 0.00 | 0.00 | 86 | 1015.6 |
| 20260901094729 | 81 | 11 | 0.0 | 4.3 | 0.00 | 0.00 | 0.00 | 86 | 1015.5 |
| 20260901094603 | 80 | 0 | 0.9 | 4.3 | 0.00 | 0.00 | 0.00 | 85 | 1015.6 |
| 20260901094453 | 81 | 241 | 1.7 | 4.3 | 0.00 | 0.00 | 0.00 | 86 | 1015.4 |
| 20260901093729 | 81 | 349 | 0.9 | 3.5 | 0.00 | 0.00 | 0.00 | 86 | 1015.5 |
| 20260901093230 | 81 | 215 | 1.7 | 4.3 | 0.00 | 0.00 | 0.00 | 86 | 1015.4 |
| 20260901093100 | 80 | 56 | 0.9 | 3.5 | 0.00 | 0.00 | 0.00 | 85 | 1015.6 |
| 20260901092730 | 81 | 95 | 1.7 | 4.3 | 0.00 | 0.00 | 0.00 | 86 | 1015.4 |
| 20260901092231 | 81 | 234 | 0.9 | 2.6 | 0.00 | 0.00 | 0.00 | 85 | 1015.5 |
| 20260901091730 | 81 | 269 | 0.9 | 2.6 | 0.00 | 0.00 | 0.00 | 85 | 1015.6 |
| 20260901091555 | 80 | 214 | 0.0 | 6.1 | 0.00 | 0.00 | 0.00 | 85 | 1015.7 |
| 20260901091229 | 81 | 19 | 1.7 | 6.1 | 0.00 | 0.00 | 0.00 | 85 | 1015.6 |
| 20260901090954 | 81 | 202 | 0.9 | 6.1 | 0.00 | 0.00 | 0.00 | 85 | 1015.6 |
| 20260901090447 | 81 | 193 | 0.9 | 3.5 | 0.00 | 0.00 | 0.00 | 85 | 1015.7 |
| 20260901090428 | 81 | 212 | 1.7 | 5.2 | 0.00 | 0.00 | 0.00 | 85 | 1015.6 |
| 20260901090100 | 81 | 330 | 0.9 | 4.3 | 0.00 | 0.00 | 0.00 | 85 | 1015.8 |
| 20260901085229 | 81 | 229 | 0.9 | 3.5 | 0.00 | 0.00 | 0.00 | 85 | 1015.8 |
| 20260901084729 | 81 | 176 | 0.9 | 3.5 | 0.00 | 0.00 | 0.00 | 85 | 1015.7 |
| 20260901084600 | 81 | 335 | 0.0 | 3.5 | 0.00 | 0.00 | 0.00 | 84 | 1015.9 |
| 20260901084229 | 81 | 126 | 0.9 | 3.5 | 0.00 | 0.00 | 0.00 | 85 | 1015.7 |
| 20260901083729 | 81 | 13 | 0.9 | 4.3 | 0.00 | 0.00 | 0.00 | 84 | 1015.7 |
| 20260901083229 | 81 | 169 | 0.9 | 4.3 | 0.00 | 0.00 | 0.00 | 84 | 1015.7 |
| 20260901083100 | 81 | 47 | 0.9 | 5.2 | 0.00 | 0.00 | 0.00 | 84 | 1015.8 |
| 20260901082954 | 82 | 290 | 0.9 | 4.3 | 0.00 | 0.00 | 0.00 | 84 | 1015.8 |
| 20260901082229 | 82 | 233 | 0.9 | 4.3 | 0.00 | 0.00 | 0.00 | 84 | 1015.7 |
| 20260901082000 | 82 | 274 | 0.9 | 4.3 | 0.00 | 0.00 | 0.00 | 84 | 1015.8 |
| 20260901081602 | 81 | 7 | 0.9 | 4.3 | 0.00 | 0.00 | 0.00 | 84 | 1016.1 |
| 20260901081229 | 82 | 225 | 0.9 | 4.3 | 0.00 | 0.00 | 0.00 | 84 | 1015.9 |
| 20260901080729 | 82 | 219 | 0.9 | 4.3 | 0.00 | 0.00 | 0.00 | 84 | 1015.8 |
| 20260901080231 | 82 | 338 | 0.9 | 6.1 | 0.00 | 0.00 | 0.00 | 84 | 1015.8 |
| 20260901080053 | 81 | 191 | 0.9 | 5.2 | 0.00 | 0.00 | 0.00 | 83 | 1016.0 |
| 20260901075731 | 82 | 250 | 0.9 | 6.1 | 0.00 | 0.00 | 0.00 | 84 | 1015.9 |
| 20260901075230 | 82 | 93 | 0.9 | 4.3 | 0.00 | 0.00 | 0.00 | 83 | 1015.7 |